This demonstration page uses our WeatherBlox Daily Observations layout. Learn more.

Left ArrowRight Arrow

Hourly Observations for August 10, 2018

Temp ( °F °C ) Dew Point ( °F °C ) Humidity (%) Winds ( mph kmh ) Pressure ( in mb ) Visibility ( mi km ) Precip ( " mm )
12:59 am 00:59 Partly Cloudy 77 25 73 22.8 88 88 SW 3 6 29.91 1013 9 14 0.00 0.00
1:59 am 01:59 Partly Cloudy 77 25 73 22.8 88 88 SSW 3 6 29.90 1013 8 13 0.00 0.00
2:59 am 02:59 Partly Cloudy 75 23.9 73 22.8 94 94 SW 5 7 29.90 1012 7 11 0.00 0.00
3:59 am 03:59 Mostly Clear 75 23.9 73 22.8 94 94 WSW 5 7 29.90 1012 7 11 0.00 0.00
4:59 am 04:59 Mostly Clear 76 24.4 73 22.8 91 91 SW 3 6 29.90 1012 8 13 0.00 0.00
5:59 am 05:59 Mostly Clear 75 23.9 73 22.8 94 94 Calm 29.90 1012 7 11 0.00 0.00
6:59 am 06:59 Partly Cloudy with Mist and Fog 75 23.9 73 22.8 94 94 Calm 29.91 1013 5 8 0.00 0.00
7:59 am 07:59 Mostly Sunny 81 27.2 75 23.9 82 82 WSW 5 7 29.92 1013 7 11 0.00 0.00
8:59 am 08:59 Mostly Sunny 84 28.9 73 22.8 70 70 VRB 5 7 29.92 1013 8 13 0.00 0.00
9:59 am 09:59 Partly Cloudy 86 30 73 22.8 65 65 N 5 7 29.93 1014 8 13 0.00 0.00
10:59 am 10:59 Partly Cloudy 86 30 74 23.3 67 67 NNW 6 9 29.94 1014 8 13 0.00 0.00
11:59 am 11:59 Partly Cloudy 88 31.1 75 23.9 66 66 NNE 8 13 29.93 1014 8 13 0.00 0.00
12:59 pm 12:59 Partly Cloudy 87 30.6 75 23.9 67 67 NNE 8 13 29.93 1014 8 13 0.00 0.00
1:59 pm 13:59 Partly Cloudy 88 31.1 73 22.8 61 61 VRB 7 11 29.93 1013 9 14 0.00 0.00
2:59 pm 14:59 Mostly Cloudy 84 28.9 69 20.6 61 61 S 9 15 29.92 1013 10 16 0.00 0.00
3:59 pm 15:59 Partly Cloudy 88 31.1 67 19.4 50 50 SE 8 13 29.90 1013 10 16 0.00 0.00
4:59 pm 16:59 Partly Cloudy 89 31.7 67 19.4 48 48 E 5 7 29.89 1012 10 16 0.00 0.00
5:59 pm 17:59 Mostly Cloudy with Light Rain 83 28.3 69 20.6 63 63 WSW 6 9 29.89 1012 9 14 0.00 0.03
6:59 pm 18:59 Mostly Cloudy 79 26.1 73 22.8 82 82 SE 6 9 29.88 1012 7 11 0.00 0.03
7:59 pm 19:59 Mostly Cloudy 81 27.2 72 22.2 74 74 SE 3 6 29.88 1012 8 13 0.00 0.00
8:59 pm 20:59 Mostly Clear 78 25.6 71 21.7 79 79 SE 3 6 29.90 1013 10 16 0.00 0.00
9:59 pm 21:59 Mostly Clear 76 24.4 71 21.7 85 85 Calm 29.92 1013 9 14 0.00 0.00
10:59 pm 22:59 Clear 77 25 72 22.2 85 85 SSE 3 6 29.92 1013 8 13 0.00 0.00
11:59 pm 23:59 Clear 77 25 73 22.8 88 88 Calm 29.92 1013 8 13 0.00 0.00

Powered by AerisWeather